NOAA 16 DEB, 41077

Orbit data source: Space-Track

NOAA 16 DEB, 41077 is space debris in SSO originally from a launch on Thu, 21 Sep 2000 UTC launched from the Air Force Western Test Range (AFWTR). Debris objects in space refer to the collection of defunct objects orbiting the Earth. Examples of debris include non-operational satellites, rocket bodies, and fragments generated from explosions, collisions, or faulty payload assembly.

Loading next visibility...
Identifier
41077, 2000-055AL
Orbit
SSO
Last TLE update
13 hours ago
Origin
Manufacturer
Unknown
Mission
Spacecraft
Bus & Motor
Unknown
Mass
Unknown
Launch date (UTC)
2000-09-21 (25 years ago)
Launch vehicle
Unknown
Launch site
Air Force Western Test Range (AFWTR)
Object type
Payload
Rocket body
Debris
Shape & HBR
Unknown
Radar Cross Section
Small (<0.1 m²)

Expand to show TLE details & history

TLE from 13 hours ago
0 NOAA 16 DEB
1 41077U 00055AL  25181.57675966  .00000396  00000-0  31535-3 0  9995
2 41077  98.8228 204.4641 0114966  73.5060 287.8697 13.93475428487267
Epoch: 2025-06-30T13:50Z
TLE epoch observation values (Epoch: 2025-06-30T13:50:32.034Z)
Latitude
-0.00004°
Longitude
77.94605°
Altitude
894.491 km
Speed
7.417 km/s
True Right ascension
13h 37m 51s
True Declination
0° 00' 00"
Sunlit
Object was in daylight at epoch
Visualization orbit readout
Latitude
43.51287°
Longitude
-93.11995°
Altitude
885.182 km
Speed
7.433 km/s
Apparent Right ascension
02h 11m 44s
Apparent Declination
5° 05' 54"
Sunlit
Object is in daylight
Visualization observer readout
Local Sidereal Time
14:09:45
Azimuth
359.3° N
Elevation
-44.983°
Doppler factor
1
Orbital elements
Apogee altitude
997.507 km
Perigee altitude
829.845 km
Semi-major axis
7,291.813 km
Eccentricity
0.0115
Inclination
98.8228°
RAAN
204.4641°
Arg. of periapsis
73.506°
True anomaly
Unknown
Mean anomaly
287.8697°
Eccentric anomaly
Unknown
Mean motion
3.4857 °/min
Orbital period
103.28 mins
BSTAR
0.00031535
Loading maneuver chart data...
Loading SW <> Apogee altitude chart data...
Loading historical data...
Loading historical data...
Loading historical data...
Loading historical data...
Loading historical data...
Loading historical data...
Loading historical data...

NOAA 16 DEB Visibility forecast

Observer location: undefined°, undefined°

Span
Click to sort rows by Start time (UTC) header in descending order
Start Az.
Max El. time (UTC)
Max El. Az.
Max El.
End time (UTC)
End Az.
9 mins2025-07-01 14:33:36.430Z10.782° NNE2025-07-01 14:37:36.430Z237.441° WSW44.458°2025-07-01 14:42:36.430Z198.788° SSW
7 mins2025-07-02 00:27:36.430Z112.457° ESE2025-07-02 00:30:36.430Z72.005° E23.666°2025-07-02 00:34:36.430Z16.008° NNE
8 mins2025-07-02 02:09:36.430Z204.303° SW2025-07-02 02:12:36.430Z255.891° W32.262°2025-07-02 02:17:36.430Z329.342° NNW
|